RADUGA-1M 3

Last updated on Thu Jul 03 2025 00:02:46 GMT+0000 (Coordinated Universal Time)

1 39375U 13062A 25182.93106787 .00000156 00000+0 00000+0 0 9998 2 39375 5.0670 76.6774 0002359 266.4740 307.2330 1.00272783 42590
UTC large
Height (km)
Speed (km/s)
/
Latitude / Longitude
Inclination (degrees)
Orbital Period (minutes)
Azimuth
Elevation
Range (km)
Doppler Factor

Next 0 passes for location: London (51.5072 / 0.1276)

Sorry there are no passes over London.